Weather History for Thomson, GA

Change the Weather History Date:

Wednesday, November 21, 2012

  Actual Average (KDBN) Record (KDBN)
Temperature  
Mean Temperature 49 °F -  
Max Temperature 66 °F 66 °F 83 °F (1942)
Min Temperature 32 °F 39 °F 19 °F (1937)
Degree Days  
Heating Degree Days 16    
Moisture  
Dew Point 40 °F    
Average Humidity 81    
Maximum Humidity 100    
Minimum Humidity 41    
Precipitation  
Precipitation 0.00 in - - ()
Sea Level Pressure  
Sea Level Pressure 30.17 in    
Wind  
Wind Speed 1 mph (NNE)    
Max Wind Speed 10 mph    
Max Gust Speed -    
Visibility 10 miles    
Events      
Averages and records for this station are not official NWS values.
T = Trace of Precipitation, MM = Missing Value Source: NWS Daily Summary

Daily Weather History Graph

Daily Weather History Graph

Search for Another Location

Airport:

Trip Planner

Search our weather history database for the weather conditions in past years. The results will help you decide how hot, cold, wet, or windy it might be!

Date:

Astronomy

Nov. 21, 2012 Rise Set
Actual Time 7:07 AM EST 5:24 PM EST
Civil Twilight 6:40 AM EST 5:50 PM EST
Nautical Twilight 6:10 AM EST 6:21 PM EST
Astronomical Twilight 5:40 AM EST 6:51 PM EST
Moon 1:23 PM EST 12:43 AM EST
Length of Visible Light 11h 10m
Length of Day
10h 16m
First Quarter, 61% of the Moon is Illuminated
Nov 21
First Quarter
Nov 28
Full
Dec 6
Last Quarter
Dec 13
New
Dec 20
First Quarter

Hourly Weather History & Observations

Time (EST) Temp. Dew Point Humidity Pressure Visibility Wind Dir Wind Speed Gust Speed Precip Events Conditions
12:15 AM 39.2 °F 39.2 °F 100% 30.13 in 7.0 mi Calm Calm - N/A   Clear
12:35 AM 37.9 °F 37.9 °F 100% 30.13 in 10.0 mi Calm Calm - N/A   Clear
12:55 AM 38.5 °F 38.5 °F 100% 30.13 in 10.0 mi Calm Calm - N/A   Clear
1:15 AM 38.3 °F 38.3 °F 100% 30.13 in 10.0 mi Calm Calm - N/A   Clear
1:35 AM 38.1 °F 38.1 °F 100% 30.13 in 7.0 mi Calm Calm - N/A   Clear
1:55 AM 37.4 °F 37.4 °F 100% 30.13 in 10.0 mi Calm Calm - N/A   Clear
2:15 AM 36.7 °F 36.7 °F 100% 30.13 in 10.0 mi Calm Calm - N/A   Clear
2:35 AM 36.7 °F 36.7 °F 100% 30.13 in 7.0 mi Calm Calm - N/A   Clear
2:55 AM 36.5 °F 36.5 °F 100% 30.13 in 10.0 mi Calm Calm - N/A   Clear
3:15 AM 36.3 °F 36.3 °F 100% 30.13 in 10.0 mi Calm Calm - N/A   Clear
3:35 AM 35.6 °F 35.6 °F 100% 30.13 in 10.0 mi Calm Calm - N/A   Clear
3:55 AM 35.6 °F 35.6 °F 100% 30.13 in 10.0 mi North - - N/A   Clear
4:15 AM 35.1 °F 35.1 °F 100% 30.13 in 10.0 mi Calm Calm - N/A   Clear
4:35 AM 35.1 °F 35.1 °F 100% 30.13 in 7.0 mi Calm Calm - N/A   Clear
4:55 AM 34.9 °F 34.9 °F 100% 30.14 in 10.0 mi Calm Calm - N/A   Clear
5:15 AM 33.8 °F 33.8 °F 100% 30.14 in 7.0 mi Calm Calm - N/A   Clear
5:35 AM 33.3 °F 33.3 °F 100% 30.15 in 7.0 mi Calm Calm - N/A   Clear
5:55 AM 32.9 °F 32.9 °F 100% 30.15 in 10.0 mi Calm Calm - N/A   Clear
6:15 AM 33.1 °F 33.1 °F 100% 30.15 in 7.0 mi Calm Calm - N/A   Clear
6:35 AM 32.7 °F 32.7 °F 100% 30.15 in 10.0 mi Calm Calm - N/A   Clear
6:55 AM 32.4 °F 32.4 °F 100% 30.16 in 7.0 mi Calm Calm - N/A   Clear
7:15 AM 32.4 °F 32.4 °F 100% 30.16 in 7.0 mi Calm Calm - N/A   Clear
7:35 AM 32.9 °F 32.9 °F 100% 30.17 in 10.0 mi Calm Calm - N/A   Clear
7:55 AM 34.0 °F 34.0 °F 100% 30.17 in 10.0 mi Calm Calm - N/A   Clear
8:15 AM 37.6 °F 37.6 °F 100% 30.18 in 10.0 mi Calm Calm - N/A   Clear
8:35 AM 39.7 °F 39.7 °F 100% 30.19 in 10.0 mi Calm Calm - N/A   Clear
8:55 AM 42.8 °F 42.8 °F 100% 30.19 in 10.0 mi Calm Calm - N/A   Clear
9:15 AM 46.2 °F 45.7 °F 98% 30.20 in 10.0 mi Calm Calm - N/A   Clear
9:35 AM 50.4 °F 48.0 °F 92% 30.20 in 10.0 mi Calm Calm - N/A   Clear
9:55 AM 52.7 °F 48.2 °F 85% 30.21 in 10.0 mi ENE 3.5 mph - N/A   Clear
10:15 AM 56.5 °F 48.4 °F 74% 30.21 in 10.0 mi ENE 3.5 mph - N/A   Clear
10:35 AM 57.9 °F 46.9 °F 67% 30.20 in 10.0 mi NE 3.5 mph - N/A   Clear
10:55 AM 58.8 °F 46.9 °F 65% 30.20 in 10.0 mi NNE 6.9 mph - N/A   Clear
11:15 AM 59.9 °F 46.6 °F 61% 30.20 in 10.0 mi North 5.8 mph - N/A   Clear
11:35 AM 61.3 °F 46.2 °F 58% 30.19 in 10.0 mi Calm Calm - N/A   Clear
11:55 AM 62.1 °F 44.8 °F 53% 30.19 in 10.0 mi North 6.9 mph - N/A   Clear
12:15 PM 62.8 °F 43.7 °F 50% 30.18 in 10.0 mi NNE 5.8 mph - N/A   Clear
12:35 PM 63.7 °F 44.1 °F 49% 30.18 in 10.0 mi NE 9.2 mph - N/A   Clear
12:55 PM 63.7 °F 42.8 °F 47% 30.17 in 10.0 mi NE 6.9 mph - N/A   Clear
1:15 PM 63.9 °F 42.3 °F 45% 30.16 in 10.0 mi NE 4.6 mph - N/A   Clear
1:35 PM 65.1 °F 41.7 °F 42% 30.16 in 10.0 mi North 8.1 mph - N/A   Clear
1:55 PM 65.5 °F 42.4 °F 43% 30.15 in 10.0 mi North 9.2 mph - N/A   Clear
2:15 PM 65.5 °F 42.4 °F 43% 30.15 in 10.0 mi North 6.9 mph - N/A   Clear
2:35 PM 65.7 °F 42.4 °F 43% 30.15 in 10.0 mi NNW 4.6 mph - N/A   Clear
2:55 PM 65.7 °F 41.9 °F 42% 30.14 in 10.0 mi Calm Calm - N/A   Clear
3:15 PM 66.4 °F 41.9 °F 41% 30.14 in 10.0 mi NE 5.8 mph - N/A   Clear
3:35 PM 66.0 °F 41.4 °F 41% 30.15 in 10.0 mi North 10.4 mph - N/A   Clear
3:55 PM 65.7 °F 41.5 °F 41% 30.15 in 10.0 mi NNE 5.8 mph - N/A   Clear
4:15 PM 65.3 °F 41.4 °F 42% 30.15 in 10.0 mi NNE 6.9 mph - N/A   Clear
4:35 PM 64.6 °F 41.9 °F 44% 30.15 in 10.0 mi NNE 4.6 mph - N/A   Clear
4:55 PM 63.1 °F 42.4 °F 47% 30.16 in 10.0 mi NE 3.5 mph - N/A   Clear
5:15 PM 60.4 °F 42.8 °F 52% 30.16 in 10.0 mi Calm Calm - N/A   Clear
5:35 PM 56.7 °F 43.7 °F 62% 30.16 in 10.0 mi Calm Calm - N/A   Clear
5:55 PM 53.6 °F 43.5 °F 69% 30.17 in 10.0 mi Calm Calm - N/A   Clear
6:15 PM 51.8 °F 43.7 °F 74% 30.17 in 10.0 mi Calm Calm - N/A   Clear
6:35 PM 50.5 °F 43.0 °F 75% 30.18 in 10.0 mi Calm Calm - N/A   Clear
6:55 PM 48.9 °F 42.8 °F 79% 30.18 in 10.0 mi Calm Calm - N/A   Clear
7:15 PM 47.1 °F 42.8 °F 85% 30.18 in 10.0 mi Calm Calm - N/A   Clear
7:35 PM 46.2 °F 42.4 °F 87% 30.18 in 10.0 mi Calm Calm - N/A   Clear
7:55 PM 45.0 °F 41.9 °F 89% 30.18 in 10.0 mi Calm Calm - N/A   Clear
8:15 PM 44.2 °F 41.9 °F 91% 30.19 in 10.0 mi Calm Calm - N/A   Clear
8:35 PM 43.7 °F 41.9 °F 93% 30.19 in 10.0 mi Calm Calm - N/A   Clear
8:55 PM 42.4 °F 41.0 °F 95% 30.19 in 10.0 mi Calm Calm - N/A   Clear
9:15 PM 42.1 °F 40.5 °F 94% 30.20 in 10.0 mi Calm Calm - N/A   Clear
9:35 PM 41.0 °F 40.1 °F 97% 30.20 in 10.0 mi Calm Calm - N/A   Clear
9:55 PM 40.5 °F 39.9 °F 98% 30.20 in 10.0 mi Calm Calm - N/A   Clear
10:15 PM 39.6 °F 39.4 °F 99% 30.20 in 10.0 mi Calm Calm - N/A   Clear
10:35 PM 39.4 °F 39.4 °F 100% 30.20 in 10.0 mi Calm Calm - N/A   Clear
10:55 PM 38.7 °F 38.7 °F 100% 30.20 in 10.0 mi Calm Calm - N/A   Clear
11:15 PM 38.5 °F 38.5 °F 100% 30.20 in 10.0 mi Calm Calm - N/A   Clear
11:35 PM 37.4 °F 37.4 °F 100% 30.21 in 10.0 mi Calm Calm - N/A   Clear
11:55 PM 37.4 °F 37.4 °F 100% 30.21 in 10.0 mi Calm Calm - N/A   Clear